Weather History for Kabul, Afghanistan

Change the Weather History Date:

Wednesday, February 13, 2013

  Actual Average Record
Temperature  
Mean Temperature 38 °F -  
Max Temperature 46 °F 47 °F - ()
Min Temperature 30 °F 27 °F - ()
Degree Days  
Heating Degree Days 27    
Moisture  
Dew Point 26 °F    
Average Humidity 60    
Maximum Humidity 81    
Minimum Humidity 40    
Precipitation  
Precipitation 0.00 in 0.08 in - ()
Sea Level Pressure  
Sea Level Pressure 30.19 in    
Wind  
Wind Speed 4 mph ()    
Max Wind Speed 10 mph    
Max Gust Speed -    
Visibility 4.4 miles    
Events Rain    
T = Trace of Precipitation, MM = Missing Value Source: Averaged Metar Reports

Daily Weather History Graph

Daily Weather History Graph

Search for Another Location

Airport:

Trip Planner

Search our weather history database for the weather conditions in past years. The results will help you decide how hot, cold, wet, or windy it might be!

Date:

Astronomy

Feb. 13, 2013 Rise Set
Actual Time 6:40 AM AFT 5:34 PM AFT
Civil Twilight 6:14 AM AFT 6:00 PM AFT
Nautical Twilight 5:45 AM AFT 6:29 PM AFT
Astronomical Twilight 5:16 AM AFT 6:59 PM AFT
Moon 8:06 AM AFT (2/13) 8:58 PM AFT (2/13)
Length of Visible Light 11h 45m
Length of Day
10h 53m
Waxing Crescent, 11% of the Moon is Illuminated
Feb 13
Waxing Crescent
Feb 18
First Quarter
Feb 26
Full
Mar 5
Last Quarter
Mar 12
New

Hourly Weather History & Observations

Time (AFT) Temp. Windchill Dew Point Humidity Pressure Visibility Wind Dir Wind Speed Gust Speed Precip Events Conditions
12:20 AM 33.8 °F 28.6 °F 24.8 °F 70% 30.21 in 5.0 mi North 5.8 mph - N/A   Unknown
1:20 AM 30.2 °F 25.4 °F 24.8 °F 80% 30.21 in 4.3 mi NW 4.6 mph - N/A   Scattered Clouds
2:20 AM 32.0 °F 27.5 °F 24.8 °F 75% 30.21 in 4.3 mi WNW 4.6 mph - N/A   Mostly Cloudy
3:20 AM 33.8 °F 30.8 °F 26.6 °F 75% 30.18 in 5.0 mi NW 3.5 mph - N/A   Mostly Cloudy
4:20 AM 33.8 °F 29.6 °F 26.6 °F 75% 30.18 in 5.0 mi North 4.6 mph - N/A   Mostly Cloudy
5:20 AM 33.8 °F 30.8 °F 26.6 °F 75% 30.18 in 5.0 mi NW 3.5 mph - N/A   Overcast
6:20 AM 33.8 °F 28.6 °F 24.8 °F 70% 30.18 in 6.2 mi NW 5.8 mph - N/A   Overcast
7:20 AM 32.0 °F 27.5 °F 24.8 °F 75% 30.21 in 2.5 mi NW 4.6 mph - N/A   Haze
8:20 AM 32.0 °F 25.6 °F 23.0 °F 69% 30.21 in 2.8 mi NW 6.9 mph - N/A   Haze
9:20 AM 37.4 °F 32.1 °F 23.0 °F 56% 30.24 in 3.1 mi WNW 6.9 mph - N/A   Haze
10:20 AM 42.8 °F 41.1 °F 23.0 °F 46% 30.24 in 3.1 mi WNW 3.5 mph - N/A   Haze
11:20 AM 42.8 °F - 24.8 °F 49% 30.24 in 2.5 mi SE 2.3 mph - N/A   Haze
11:36 AM 42.8 °F 39.3 °F 24.8 °F 49% 30.21 in 3.7 mi NE 5.8 mph - N/A   Mostly Cloudy
12:20 PM 44.6 °F 42.2 °F 26.6 °F 49% 30.21 in 3.7 mi East 4.6 mph - N/A   Mostly Cloudy
1:20 PM 46.4 °F 42.4 °F 28.4 °F 50% 30.18 in 3.7 mi ENE 8.1 mph - N/A   Mostly Cloudy
2:20 PM 46.4 °F 42.4 °F 23.0 °F 40% 30.18 in 6.2 mi NNE 8.1 mph - N/A   Mostly Cloudy
3:20 PM 46.4 °F 44.3 °F 23.0 °F 40% 30.15 in 6.2 mi NE 4.6 mph - N/A   Scattered Clouds
4:20 PM 44.6 °F 40.7 °F 23.0 °F 43% 30.15 in 6.2 mi North 6.9 mph - N/A   Scattered Clouds
5:20 PM 42.8 °F 40.1 °F 24.8 °F 49% 30.15 in 6.2 mi NNE 4.6 mph - N/A   Scattered Clouds
6:20 PM 42.8 °F - 23.0 °F 46% 30.15 in 5.0 mi ENE 2.3 mph - N/A   Mostly Cloudy
7:20 PM 41.0 °F - 26.6 °F 57% 30.15 in 5.0 mi East 1.2 mph - N/A   Mostly Cloudy
8:20 PM 41.0 °F 39.0 °F 26.6 °F 57% 30.15 in 4.3 mi SSE 3.5 mph - N/A   Mostly Cloudy
9:20 PM 41.0 °F 37.1 °F 30.2 °F 65% 30.15 in 3.1 mi South 5.8 mph - N/A   Haze
10:20 PM 41.0 °F 38.0 °F 30.2 °F 65% 30.18 in 3.7 mi ESE 4.6 mph - N/A   Mostly Cloudy
11:20 PM 37.4 °F 30.3 °F 32.0 °F 81% 30.18 in 3.7 mi South 10.4 mph - N/A Rain Rain